Location: Goldmont Forest
(38.0233°N, 120.2524°W)
Time: 09:08:28
(UTC+00:00)

IRIDIUM 106 - Pass Details

Date: 10 November 2024
Orbit: 776 x 779 km, 86.4° (Epoch: 06 December)

Event Time Altitude Azimuth Distance (km) Brightness Sun altitude
Rises 01:35:56 0° 133° (SE) 3,249 7.2 -8.8°
Reaches altitude 10° 01:39:23 10° 109° (ESE) 2,327 6.3 -9.5°
Maximum altitude 01:42:01 14° 78° (ENE) 2,052 5.8 -10.0°
Drops below altitude 10° 01:44:40 10° 48° (NE) 2,334 6.3 -10.5°
Sets 01:48:07 0° 24° (NNE) 3,267 7.2 -11.1°
